QPF
0.00 0.00 0.00 0.00 0.00 0.00 0.00 0.00 0.00 0.00 0.00 0.00 0.00 0.00 0.00 0.00 0.00 0.01 0.03 0.06 0.07 0.08 0.07 0.05 0.04 0.03 0.04 0.04 0.04 0.04 0.04 0.04 0.04 0.04 0.04 0.04 0.03 0.03 0.02 0.02 0.02 0.01 0.01 0.01
0.00 0.00 0.00 0.00 0.00 0.00 0.00 0.00 0.00 0.00 0.00 0.01 0.01 0.00 0.01 0.01 0.01 0.01 0.03 0.04 0.05 0.08 0.08 0.06 0.05 0.04 0.03 0.04 0.05 0.05 0.05 0.04 0.04 0.04 0.04 0.04 0.04 0.03 0.03 0.02 0.02 0.02 0.01 0.01
0.00 0.00 0.00 0.00 0.00 0.00 0.00 0.00 0.01 0.01 0.02 0.02 0.01 0.01 0.01 0.01 0.02 0.03 0.02 0.01 0.01 0.02 0.02 0.03 0.03 0.02 0.03 0.04 0.04 0.04 0.05 0.05 0.04 0.03 0.03 0.03 0.03 0.03 0.03 0.03 0.03 0.02 0.02 0.01
0.00 0.00 0.01 0.01 0.00 0.00 0.00 0.00 0.01 0.01 0.01 0.01 0.01 0.01 0.01 0.02 0.02 0.02 0.01 0.00 0.00 0.01 0.01 0.01 0.01 0.01 0.02 0.02 0.03 0.03 0.04 0.04 0.04 0.03 0.02 0.02 0.03 0.03 0.03 0.03 0.03 0.03 0.02 0.01
0.00 0.01 0.01 0.01 0.00 0.00 0.00 0.01 0.01 0.01 0.00 0.00 0.00 0.00 0.00 0.01 0.01 0.01 0.01 0.01 0.01 0.01 0.01 0.01 0.01 0.01 0.02 0.01 0.02 0.02 0.03 0.03 0.03 0.02 0.02 0.02 0.02 0.01 0.02 0.02 0.03 0.03 0.03 0.03
0.00 0.00 0.01 0.01 0.00 0.00 0.00 0.01 0.01 0.00 0.00 0.00 0.01 0.01 0.00 0.00 0.01 0.01 0.01 0.01 0.00 0.00 0.01 0.01 0.01 0.01 0.02 0.02 0.02 0.02 0.02 0.02 0.02 0.02 0.02 0.01 0.01 0.01 0.01 0.02 0.03 0.03 0.04 0.04
0.00 0.00 0.01 0.01 0.00 0.00 0.01 0.01 0.00 0.00 0.00 0.00 0.01 0.01 0.01 0.01 0.02 0.02 0.03 0.02 0.01 0.01 0.01 0.01 0.02 0.01 0.01 0.02 0.02 0.02 0.02 0.02 0.02 0.02 0.01 0.01 0.02 0.02 0.02 0.02 0.02 0.03 0.04 0.04
0.01 0.01 0.01 0.01 0.01 0.02 0.02 0.01 0.00 0.00 0.00 0.01 0.01 0.01 0.01 0.02 0.02 0.02 0.02 0.03 0.03 0.02 0.01 0.01 0.02 0.02 0.01 0.01 0.01 0.02 0.03 0.03 0.03 0.02 0.02 0.02 0.02 0.02 0.02 0.02 0.02 0.02 0.03 0.04
0.02 0.02 0.01 0.01 0.01 0.01 0.01 0.01 0.01 0.01 0.01 0.01 0.01 0.01 0.01 0.01 0.01 0.01 0.01 0.02 0.03 0.02 0.01 0.01 0.02 0.02 0.02 0.01 0.01 0.01 0.01 0.02 0.03 0.03 0.03 0.02 0.02 0.02 0.02 0.02 0.02 0.02 0.02 0.03
0.01 0.02 0.01 0.00 0.00 0.00 0.01 0.01 0.01 0.01 0.01 0.01 0.02 0.02 0.01 0.01 0.01 0.01 0.01 0.02 0.03 0.03 0.02 0.01 0.02 0.02 0.02 0.01 0.01 0.01 0.01 0.01 0.02 0.03 0.05 0.05 0.04 0.03 0.02 0.02 0.02 0.01 0.01 0.01
0.00 0.00 0.00 0.00 0.00 0.00 0.00 0.00 0.00 0.01 0.01 0.01 0.01 0.01 0.00 0.01 0.01 0.01 0.01 0.01 0.03 0.04 0.03 0.02 0.02 0.02 0.02 0.02 0.01 0.01 0.01 0.01 0.01 0.01 0.03 0.05 0.07 0.06 0.04 0.02 0.02 0.02 0.01 0.01
0.02 0.01 0.01 0.00 0.00 0.00 0.00 0.00 0.00 0.00 0.01 0.01 0.00 0.00 0.00 0.00 0.01 0.01 0.01 0.01 0.02 0.03 0.03 0.03 0.03 0.03 0.03 0.02 0.01 0.01 0.01 0.01 0.01 0.01 0.02 0.03 0.04 0.05 0.05 0.04 0.03 0.02 0.02 0.02
0.02 0.02 0.02 0.01 0.00 0.00 0.00 0.00 0.00 0.00 0.00 0.00 0.00 0.00 0.01 0.01 0.01 0.01 0.01 0.01 0.01 0.02 0.03 0.03 0.03 0.04 0.03 0.02 0.01 0.02 0.01 0.01 0.01 0.01 0.01 0.02 0.02 0.03 0.03 0.03 0.03 0.03 0.03 0.02
0.01 0.01 0.01 0.01 0.00 0.00 0.00 0.00 0.00 0.00 0.00 0.00 0.00 0.01 0.01 0.01 0.02 0.01 0.01 0.00 0.00 0.01 0.03 0.02 0.02 0.03 0.03 0.02 0.02 0.02 0.02 0.01 0.01 0.01 0.01 0.01 0.01 0.01 0.01 0.02 0.02 0.03 0.03 0.03
0.01 0.01 0.01 0.01 0.00 0.00 0.00 0.00 0.00 0.00 0.00 0.00 0.00 0.01 0.01 0.01 0.01 0.01 0.00 0.00 0.00 0.01 0.02 0.01 0.02 0.03 0.03 0.02 0.02 0.03 0.03 0.02 0.01 0.01 0.01 0.01 0.01 0.01 0.01 0.01 0.01 0.01 0.02 0.03
0.01 0.01 0.01 0.01 0.00 0.00 0.00 0.00 0.00 0.00 0.00 0.00 0.00 0.00 0.01 0.01 0.01 0.00 0.00 0.00 0.00 0.00 0.01 0.01 0.02 0.03 0.03 0.02 0.02 0.05 0.05 0.03 0.02 0.01 0.01 0.01 0.01 0.01 0.01 0.01 0.01 0.01 0.01 0.01
0.00 0.00 0.00 0.00 0.01 0.01 0.00 0.00 0.00 0.00 0.00 0.00 0.00 0.01 0.01 0.01 0.00 0.00 0.00 0.00 0.00 0.00 0.01 0.02 0.03 0.04 0.04 0.02 0.01 0.04 0.08 0.06 0.02 0.02 0.01 0.01 0.01 0.01 0.01 0.01 0.01 0.01 0.01 0.01
0.00 0.00 0.00 0.00 0.01 0.01 0.01 0.00 0.00 0.01 0.01 0.01 0.01 0.01 0.01 0.01 0.01 0.00 0.00 0.01 0.01 0.02 0.02 0.02 0.03 0.05 0.04 0.03 0.02 0.03 0.07 0.09 0.04 0.02 0.02 0.01 0.01 0.01 0.01 0.01 0.02 0.02 0.02 0.02
0.00 0.00 0.00 0.00 0.00 0.00 0.00 0.00 0.00 0.01 0.01 0.00 0.00 0.00 0.01 0.01 0.01 0.00 0.00 0.01 0.01 0.02 0.03 0.02 0.03 0.04 0.05 0.05 0.04 0.03 0.06 0.10 0.07 0.04 0.02 0.02 0.02 0.01 0.02 0.02 0.02 0.03 0.03 0.02
0.00 0.00 0.00 0.00 0.00 0.00 0.00 0.00 0.00 0.00 0.00 0.00 0.00 0.00 0.00 0.00 0.00 0.00 0.00 0.01 0.02 0.03 0.03 0.03 0.02 0.03 0.04 0.05 0.05 0.04 0.05 0.10 0.11 0.09 0.05 0.03 0.03 0.02 0.02 0.02 0.02 0.02 0.02 0.02
0.00 0.00 0.00 0.00 0.00 0.00 0.00 0.00 0.01 0.01 0.00 0.00 0.00 0.00 0.00 0.00 0.00 0.00 0.00 0.00 0.01 0.02 0.02 0.04 0.04 0.04 0.04 0.04 0.04 0.04 0.05 0.07 0.10 0.12 0.11 0.07 0.04 0.04 0.04 0.03 0.03 0.02 0.02 0.02
0.00 0.00 0.00 0.00 0.00 0.00 0.00 0.00 0.00 0.01 0.01 0.00 0.00 0.00 0.00 0.00 0.00 0.00 0.00 0.00 0.01 0.02 0.02 0.02 0.04 0.06 0.05 0.03 0.04 0.04 0.05 0.06 0.07 0.09 0.12 0.11 0.07 0.06 0.06 0.05 0.04 0.04 0.03 0.03
0.00 0.00 0.00 0.00 0.00 0.00 0.00 0.00 0.00 0.00 0.00 0.01 0.00 0.00 0.00 0.00 0.00 0.00 0.01 0.01 0.01 0.01 0.02 0.02 0.03 0.05 0.06 0.04 0.03 0.03 0.04 0.04 0.05 0.06 0.07 0.08 0.08 0.07 0.06 0.06 0.06 0.05 0.04 0.03
0.00 0.00 0.00 0.00 0.00 0.00 0.00 0.00 0.00 0.00 0.01 0.00 0.00 0.00 0.00 0.00 0.00 0.01 0.01 0.01 0.01 0.02 0.02 0.03 0.03 0.04 0.06 0.06 0.04 0.03 0.03 0.04 0.04 0.04 0.04 0.05 0.06 0.06 0.06 0.05 0.05 0.06 0.06 0.05
0.00 0.00 0.00 0.00 0.00 0.00 0.00 0.00 0.00 0.00 0.00 0.00 0.00 0.00 0.00 0.00 0.01 0.01 0.01 0.01 0.02 0.02 0.02 0.03 0.03 0.03 0.04 0.06 0.06 0.04 0.03 0.04 0.04 0.04 0.03 0.04 0.04 0.04 0.04 0.04 0.04 0.04 0.05 0.05
0.00 0.00 0.00 0.00 0.00 0.00 0.00 0.00 0.00 0.00 0.00 0.00 0.00 0.00 0.00 0.00 0.00 0.00 0.01 0.01 0.02 0.02 0.02 0.03 0.03 0.02 0.03 0.05 0.05 0.04 0.03 0.03 0.03 0.03 0.03 0.03 0.03 0.03 0.03 0.03 0.03 0.03 0.03 0.03
0.00 0.00 0.00 0.00 0.00 0.00 0.00 0.00 0.00 0.00 0.00 0.00 0.00 0.00 0.00 0.00 0.00 0.00 0.00 0.01 0.02 0.02 0.02 0.02 0.03 0.03 0.03 0.04 0.05 0.04 0.03 0.03 0.02 0.02 0.02 0.02 0.02 0.02 0.02 0.02 0.02 0.02 0.02 0.02
MSLP
1027.46 1027.46 1027.48 1027.57 1027.73 1027.97 1028.26 1028.58 1028.91 1029.22 1029.48 1029.68 1029.81 1029.87 1029.87 1029.81 1029.70 1029.54 1029.33 1029.08 1028.77 1028.42 1028.03 1027.61 1027.16 1026.72 1026.29 1025.90 1025.56 1025.29 1025.09 1024.96 1024.90 1024.90 1024.96 1025.06 1025.19 1025.34 1025.50 1025.66 1025.82 1025.96 1026.10 1026.24
1027.91 1027.90 1027.90 1027.94 1028.03 1028.18 1028.38 1028.62 1028.89 1029.15 1029.40 1029.60 1029.76 1029.87 1029.92 1029.92 1029.86 1029.75 1029.59 1029.38 1029.10 1028.78 1028.41 1028.00 1027.55 1027.10 1026.64 1026.20 1025.78 1025.41 1025.10 1024.85 1024.67 1024.56 1024.52 1024.54 1024.63 1024.76 1024.92 1025.11 1025.30 1025.49 1025.68 1025.85
1028.32 1028.28 1028.24 1028.21 1028.22 1028.29 1028.41 1028.59 1028.80 1029.03 1029.26 1029.48 1029.66 1029.81 1029.91 1029.95 1029.94 1029.88 1029.76 1029.58 1029.35 1029.06 1028.73 1028.35 1027.93 1027.48 1027.00 1026.52 1026.05 1025.59 1025.17 1024.79 1024.47 1024.23 1024.08 1024.01 1024.02 1024.11 1024.26 1024.45 1024.67 1024.90 1025.13 1025.34
1028.69 1028.59 1028.48 1028.37 1028.31 1028.30 1028.36 1028.47 1028.64 1028.85 1029.08 1029.31 1029.52 1029.71 1029.84 1029.93 1029.96 1029.94 1029.86 1029.72 1029.53 1029.29 1029.00 1028.66 1028.27 1027.85 1027.38 1026.88 1026.35 1025.82 1025.29 1024.79 1024.34 1023.96 1023.68 1023.49 1023.42 1023.44 1023.54 1023.72 1023.94 1024.19 1024.44 1024.69
1028.96 1028.79 1028.60 1028.42 1028.27 1028.20 1028.19 1028.26 1028.41 1028.61 1028.84 1029.09 1029.33 1029.55 1029.72 1029.85 1029.92 1029.93 1029.89 1029.79 1029.64 1029.45 1029.21 1028.92 1028.58 1028.18 1027.73 1027.22 1026.66 1026.07 1025.46 1024.86 1024.29 1023.78 1023.36 1023.05 1022.86 1022.79 1022.82 1022.95 1023.15 1023.39 1023.65 1023.91
1029.08 1028.83 1028.56 1028.30 1028.08 1027.95 1027.90 1027.94 1028.06 1028.26 1028.51 1028.78 1029.05 1029.30 1029.51 1029.67 1029.78 1029.83 1029.82 1029.77 1029.66 1029.52 1029.32 1029.09 1028.79 1028.44 1028.02 1027.52 1026.96 1026.33 1025.66 1024.98 1024.31 1023.69 1023.15 1022.72 1022.40 1022.22 1022.15 1022.20 1022.33 1022.52 1022.76 1023.01
1028.98 1028.65 1028.30 1027.98 1027.71 1027.53 1027.45 1027.47 1027.59 1027.79 1028.05 1028.35 1028.65 1028.93 1029.18 1029.37 1029.52 1029.60 1029.63 1029.61 1029.55 1029.45 1029.31 1029.13 1028.89 1028.58 1028.20 1027.74 1027.19 1026.57 1025.88 1025.16 1024.43 1023.72 1023.07 1022.52 1022.08 1021.77 1021.58 1021.51 1021.54 1021.65 1021.83 1022.04
1028.61 1028.21 1027.80 1027.43 1027.14 1026.93 1026.84 1026.86 1026.98 1027.19 1027.47 1027.78 1028.11 1028.42 1028.70 1028.93 1029.10 1029.22 1029.29 1029.31 1029.29 1029.23 1029.14 1029.01 1028.83 1028.58 1028.26 1027.85 1027.35 1026.76 1026.10 1025.37 1024.62 1023.87 1023.15 1022.50 1021.94 1021.50 1021.17 1020.95 1020.85 1020.84 1020.91 1021.04
1027.93 1027.49 1027.06 1026.68 1026.38 1026.18 1026.09 1026.12 1026.25 1026.48 1026.77 1027.10 1027.45 1027.78 1028.08 1028.34 1028.54 1028.69 1028.79 1028.85 1028.87 1028.86 1028.81 1028.73 1028.61 1028.43 1028.18 1027.84 1027.42 1026.90 1026.29 1025.61 1024.88 1024.12 1023.37 1022.65 1021.99 1021.42 1020.94 1020.57 1020.30 1020.14 1020.07 1020.10
1026.99 1026.54 1026.12 1025.76 1025.48 1025.31 1025.26 1025.31 1025.47 1025.71 1026.02 1026.36 1026.72 1027.06 1027.38 1027.65 1027.88 1028.06 1028.19 1028.28 1028.33 1028.35 1028.35 1028.32 1028.25 1028.14 1027.97 1027.72 1027.39 1026.97 1026.46 1025.86 1025.19 1024.47 1023.71 1022.96 1022.23 1021.54 1020.92 1020.39 1019.95 1019.62 1019.39 1019.28
1025.85 1025.42 1025.05 1024.74 1024.53 1024.42 1024.41 1024.51 1024.70 1024.96 1025.28 1025.62 1025.98 1026.33 1026.65 1026.94 1027.18 1027.37 1027.52 1027.64 1027.72 1027.77 1027.81 1027.82 1027.80 1027.75 1027.66 1027.50 1027.27 1026.96 1026.57 1026.08 1025.50 1024.85 1024.14 1023.38 1022.61 1021.84 1021.11 1020.43 1019.83 1019.32 1018.93 1018.66
1024.62 1024.25 1023.95 1023.73 1023.61 1023.58 1023.64 1023.80 1024.02 1024.30 1024.63 1024.97 1025.33 1025.67 1025.98 1026.27 1026.51 1026.72 1026.88 1027.01 1027.11 1027.18 1027.24 1027.28 1027.30 1027.30 1027.27 1027.20 1027.07 1026.87 1026.60 1026.23 1025.77 1025.21 1024.57 1023.85 1023.07 1022.27 1021.46 1020.67 1019.93 1019.27 1018.72 1018.29
1023.43 1023.14 1022.93 1022.82 1022.80 1022.86 1023.01 1023.22 1023.49 1023.79 1024.12 1024.46 1024.79 1025.12 1025.42 1025.70 1025.94 1026.15 1026.31 1026.45 1026.56 1026.64 1026.70 1026.75 1026.80 1026.83 1026.84 1026.83 1026.78 1026.68 1026.51 1026.27 1025.93 1025.48 1024.93 1024.28 1023.55 1022.75 1021.91 1021.06 1020.23 1019.46 1018.78 1018.21
1022.37 1022.17 1022.07 1022.06 1022.15 1022.31 1022.54 1022.80 1023.11 1023.43 1023.75 1024.08 1024.40 1024.71 1024.99 1025.25 1025.48 1025.68 1025.85 1025.98 1026.08 1026.16 1026.22 1026.27 1026.31 1026.34 1026.37 1026.40 1026.40 1026.38 1026.30 1026.16 1025.94 1025.61 1025.17 1024.62 1023.97 1023.22 1022.40 1021.54 1020.68 1019.85 1019.08 1018.41
1021.51 1021.39 1021.38 1021.48 1021.67 1021.92 1022.21 1022.53 1022.86 1023.19 1023.51 1023.82 1024.12 1024.41 1024.67 1024.91 1025.13 1025.32 1025.48 1025.60 1025.69 1025.76 1025.80 1025.82 1025.84 1025.86 1025.89 1025.92 1025.95 1025.97 1025.96 1025.91 1025.78 1025.57 1025.26 1024.82 1024.28 1023.62 1022.88 1022.07 1021.23 1020.40 1019.60 1018.86
1020.85 1020.80 1020.88 1021.06 1021.33 1021.64 1021.99 1022.34 1022.69 1023.02 1023.33 1023.63 1023.90 1024.16 1024.41 1024.64 1024.84 1025.02 1025.17 1025.28 1025.36 1025.40 1025.41 1025.41 1025.40 1025.39 1025.39 1025.41 1025.44 1025.48 1025.51 1025.52 1025.48 1025.37 1025.17 1024.87 1024.45 1023.93 1023.30 1022.60 1021.83 1021.05 1020.27 1019.53
1020.37 1020.39 1020.53 1020.77 1021.09 1021.44 1021.81 1022.18 1022.53 1022.86 1023.16 1023.43 1023.69 1023.93 1024.16 1024.37 1024.57 1024.74 1024.88 1024.98 1025.05 1025.08 1025.07 1025.03 1024.98 1024.94 1024.90 1024.89 1024.90 1024.94 1024.99 1025.04 1025.06 1025.04 1024.96 1024.78 1024.50 1024.12 1023.64 1023.07 1022.43 1021.75 1021.03 1020.33
1020.04 1020.09 1020.27 1020.55 1020.89 1021.26 1021.63 1022.00 1022.34 1022.65 1022.94 1023.20 1023.44 1023.66 1023.88 1024.09 1024.28 1024.45 1024.59 1024.69 1024.75 1024.76 1024.74 1024.68 1024.60 1024.52 1024.45 1024.40 1024.39 1024.41 1024.46 1024.52 1024.59 1024.64 1024.65 1024.59 1024.45 1024.22 1023.89 1023.48 1022.98 1022.42 1021.82 1021.19
1019.81 1019.88 1020.08 1020.36 1020.69 1021.06 1021.42 1021.77 1022.10 1022.39 1022.66 1022.91 1023.14 1023.36 1023.58 1023.78 1023.98 1024.15 1024.30 1024.40 1024.46 1024.47 1024.44 1024.37 1024.27 1024.16 1024.06 1023.98 1023.93 1023.93 1023.96 1024.03 1024.12 1024.22 1024.29 1024.33 1024.30 1024.21 1024.03 1023.77 1023.43 1023.02 1022.54 1022.02
1019.64 1019.73 1019.92 1020.19 1020.51 1020.85 1021.19 1021.52 1021.82 1022.10 1022.36 1022.61 1022.84 1023.06 1023.28 1023.49 1023.69 1023.87 1024.02 1024.14 1024.20 1024.21 1024.18 1024.10 1023.99 1023.87 1023.74 1023.64 1023.56 1023.53 1023.54 1023.60 1023.69 1023.80 1023.92 1024.01 1024.08 1024.10 1024.05 1023.93 1023.73 1023.46 1023.12 1022.72
1019.54 1019.62 1019.80 1020.05 1020.34 1020.65 1020.97 1021.28 1021.57 1021.84 1022.10 1022.35 1022.58 1022.81 1023.04 1023.26 1023.46 1023.65 1023.80 1023.92 1023.99 1024.00 1023.97 1023.89 1023.77 1023.64 1023.50 1023.37 1023.26 1023.20 1023.18 1023.21 1023.28 1023.39 1023.52 1023.65 1023.77 1023.87 1023.92 1023.91 1023.85 1023.71 1023.50 1023.23
1019.50 1019.59 1019.75 1019.97 1020.23 1020.52 1020.81 1021.11 1021.40 1021.67 1021.94 1022.19 1022.44 1022.68 1022.91 1023.13 1023.33 1023.51 1023.66 1023.77 1023.83 1023.84 1023.80 1023.71 1023.59 1023.44 1023.28 1023.13 1023.00 1022.90 1022.84 1022.83 1022.87 1022.95 1023.08 1023.22 1023.37 1023.52 1023.64 1023.72 1023.76 1023.74 1023.66 1023.51
1019.55 1019.63 1019.77 1019.97 1020.21 1020.48 1020.76 1021.06 1021.35 1021.63 1021.91 1022.18 1022.43 1022.68 1022.91 1023.12 1023.31 1023.47 1023.59 1023.67 1023.71 1023.70 1023.64 1023.54 1023.40 1023.23 1023.05 1022.87 1022.71 1022.57 1022.48 1022.43 1022.42 1022.47 1022.57 1022.70 1022.86 1023.04 1023.21 1023.36 1023.48 1023.56 1023.59 1023.56
1019.68 1019.76 1019.89 1020.08 1020.30 1020.56 1020.84 1021.13 1021.43 1021.73 1022.02 1022.30 1022.56 1022.80 1023.02 1023.21 1023.36 1023.48 1023.56 1023.60 1023.60 1023.54 1023.45 1023.32 1023.15 1022.96 1022.76 1022.55 1022.36 1022.19 1022.05 1021.96 1021.92 1021.93 1022.00 1022.12 1022.28 1022.47 1022.67 1022.88 1023.07 1023.23 1023.36 1023.43
1019.89 1019.97 1020.09 1020.27 1020.48 1020.74 1021.02 1021.32 1021.62 1021.93 1022.23 1022.52 1022.77 1023.00 1023.19 1023.33 1023.44 1023.51 1023.53 1023.50 1023.43 1023.33 1023.19 1023.01 1022.81 1022.59 1022.37 1022.14 1021.92 1021.72 1021.56 1021.44 1021.37 1021.36 1021.40 1021.51 1021.66 1021.87 1022.10 1022.35 1022.60 1022.84 1023.04 1023.21
1020.15 1020.22 1020.34 1020.51 1020.72 1020.97 1021.25 1021.56 1021.87 1022.18 1022.48 1022.75 1022.99 1023.18 1023.33 1023.42 1023.47 1023.46 1023.41 1023.32 1023.18 1023.02 1022.83 1022.61 1022.38 1022.13 1021.89 1021.65 1021.42 1021.21 1021.04 1020.90 1020.82 1020.80 1020.84 1020.95 1021.11 1021.33 1021.59 1021.88 1022.18 1022.48 1022.75 1022.98
1020.40 1020.48 1020.60 1020.76 1020.97 1021.21 1021.49 1021.79 1022.09 1022.40 1022.68 1022.93 1023.13 1023.28 1023.37 1023.40 1023.38 1023.30 1023.18 1023.02 1022.82 1022.60 1022.37 1022.12 1021.87 1021.62 1021.38 1021.14 1020.92 1020.73 1020.57 1020.45 1020.38 1020.37 1020.42 1020.54 1020.72 1020.96 1021.25 1021.57 1021.91 1022.25 1022.57 1022.85
Thickness
5643 5648 5648 5648 5649 5647 5643 5640 5633 5637 5639 5649 5653 5654 5655 5656 5655 5655 5655 5654 5654 5652 5652 5651 5651 5651 5651 5651 5650 5649 5647 5645 5644 5643 5641 5639 5637 5636 5634 5633 5632 5630 5628 5626
5638 5644 5643 5642 5645 5645 5642 5641 5638 5639 5640 5650 5651 5650 5650 5650 5651 5650 5650 5650 5650 5649 5647 5646 5646 5646 5646 5646 5645 5643 5642 5641 5639 5637 5635 5634 5633 5631 5629 5627 5626 5624 5623 5621
5622 5631 5638 5632 5639 5640 5638 5639 5638 5635 5641 5645 5644 5646 5646 5646 5646 5645 5645 5646 5645 5644 5643 5642 5641 5642 5641 5641 5640 5639 5637 5636 5634 5632 5630 5629 5628 5626 5623 5622 5620 5618 5617 5615
5611 5621 5617 5630 5641 5641 5638 5637 5637 5639 5641 5641 5643 5644 5644 5643 5642 5641 5642 5641 5640 5639 5638 5638 5638 5637 5637 5635 5634 5633 5631 5630 5628 5626 5625 5623 5621 5619 5618 5616 5614 5612 5610 5609
5600 5604 5612 5626 5633 5632 5630 5630 5633 5633 5635 5635 5637 5637 5636 5638 5638 5638 5638 5637 5637 5636 5635 5634 5633 5632 5631 5628 5627 5626 5625 5623 5622 5621 5619 5616 5614 5613 5611 5609 5607 5606 5604 5603
5594 5600 5603 5618 5629 5632 5629 5623 5629 5628 5627 5627 5628 5622 5626 5632 5632 5632 5632 5632 5632 5631 5630 5627 5626 5625 5624 5622 5620 5619 5619 5618 5617 5615 5613 5611 5609 5607 5605 5603 5601 5600 5598 5597
5588 5591 5600 5612 5621 5625 5611 5612 5621 5621 5621 5620 5619 5619 5622 5624 5624 5624 5625 5625 5625 5624 5623 5621 5620 5618 5616 5614 5614 5614 5613 5611 5609 5608 5607 5605 5602 5600 5598 5596 5594 5592 5591 5590
5581 5584 5594 5608 5609 5605 5606 5612 5613 5613 5614 5613 5613 5613 5614 5615 5615 5616 5616 5617 5617 5616 5615 5614 5613 5611 5609 5607 5608 5606 5604 5603 5601 5600 5599 5598 5595 5593 5591 5588 5586 5584 5583 5582
5586 5590 5596 5599 5601 5604 5604 5604 5605 5605 5606 5606 5604 5604 5606 5606 5606 5606 5607 5607 5607 5607 5606 5605 5604 5603 5601 5600 5600 5598 5596 5594 5593 5592 5591 5589 5587 5585 5582 5581 5579 5577 5576 5575
5580 5586 5591 5594 5596 5597 5597 5598 5599 5599 5599 5598 5596 5596 5596 5596 5596 5597 5597 5597 5597 5597 5596 5595 5594 5594 5593 5592 5591 5590 5588 5586 5585 5584 5583 5581 5580 5578 5576 5574 5572 5571 5570 5569
5575 5581 5584 5588 5588 5590 5590 5591 5591 5590 5590 5590 5589 5588 5587 5587 5587 5587 5587 5587 5587 5586 5585 5585 5585 5585 5584 5584 5583 5581 5580 5578 5577 5575 5574 5573 5571 5570 5570 5569 5568 5566 5565 5564
5574 5578 5576 5578 5582 5582 5582 5582 5582 5582 5581 5581 5581 5580 5579 5578 5577 5577 5576 5576 5576 5576 5576 5576 5577 5576 5576 5576 5575 5573 5571 5570 5568 5566 5565 5564 5563 5562 5562 5562 5563 5562 5562 5560
5572 5574 5572 5573 5574 5574 5574 5574 5574 5573 5572 5571 5571 5571 5570 5569 5568 5568 5567 5567 5567 5566 5567 5567 5567 5567 5567 5567 5566 5565 5564 5562 5560 5558 5556 5555 5554 5552 5552 5553 5554 5553 5553 5552
5565 5564 5563 5563 5563 5564 5564 5564 5563 5563 5562 5562 5561 5561 5560 5559 5559 5558 5558 5558 5558 5557 5557 5557 5557 5558 5559 5559 5558 5557 5556 5555 5553 5550 5548 5547 5546 5545 5544 5543 5542 5542 5543 5543
5557 5557 5555 5555 5554 5553 5553 5553 5551 5550 5550 5550 5551 5550 5550 5549 5548 5548 5548 5548 5548 5548 5548 5549 5549 5549 5550 5550 5550 5549 5547 5546 5545 5543 5541 5540 5538 5537 5535 5534 5533 5532 5532 5532
5549 5548 5546 5545 5544 5543 5542 5541 5540 5539 5539 5539 5539 5539 5539 5539 5538 5538 5538 5538 5538 5538 5538 5538 5539 5540 5541 5541 5541 5540 5539 5540 5538 5535 5533 5531 5530 5528 5526 5525 5524 5523 5523 5523
5539 5537 5535 5534 5534 5533 5532 5532 5531 5530 5529 5529 5529 5528 5528 5527 5527 5527 5527 5527 5528 5528 5528 5528 5529 5531 5532 5532 5532 5532 5530 5530 5531 5528 5525 5524 5522 5520 5519 5517 5516 5516 5515 5515
5535 5534 5531 5529 5527 5525 5523 5522 5521 5520 5519 5519 5518 5517 5517 5516 5515 5516 5516 5517 5517 5518 5518 5519 5520 5521 5522 5523 5523 5523 5522 5521 5520 5518 5516 5514 5513 5512 5510 5509 5508 5507 5507 5506
5526 5524 5522 5521 5519 5516 5514 5512 5511 5510 5509 5508 5507 5506 5505 5505 5504 5504 5504 5505 5506 5507 5508 5510 5511 5511 5512 5513 5514 5513 5512 5511 5509 5508 5507 5506 5505 5503 5502 5500 5499 5498 5497 5497
5516 5515 5513 5511 5510 5507 5505 5503 5502 5500 5499 5498 5497 5496 5494 5494 5493 5493 5493 5493 5494 5496 5498 5499 5500 5500 5501 5502 5504 5502 5502 5501 5500 5498 5497 5496 5495 5494 5493 5492 5491 5490 5489 5488
5507 5505 5503 5501 5499 5498 5496 5494 5492 5490 5489 5488 5487 5486 5485 5484 5484 5483 5483 5484 5485 5486 5487 5489 5489 5490 5490 5492 5494 5492 5492 5491 5490 5489 5488 5487 5486 5485 5484 5483 5482 5481 5480 5479
5497 5495 5494 5492 5490 5487 5486 5484 5482 5481 5479 5478 5477 5476 5475 5474 5474 5474 5474 5474 5476 5478 5478 5478 5479 5481 5482 5483 5482 5482 5482 5482 5481 5480 5480 5478 5477 5476 5476 5475 5474 5473 5472 5471
5486 5485 5483 5482 5480 5477 5476 5474 5473 5472 5470 5469 5468 5467 5465 5465 5464 5464 5465 5466 5466 5468 5468 5468 5470 5472 5473 5472 5472 5472 5472 5472 5472 5472 5471 5471 5470 5469 5468 5467 5466 5465 5464 5463
5477 5475 5474 5472 5469 5467 5465 5465 5463 5462 5461 5460 5459 5458 5457 5456 5456 5456 5456 5457 5459 5459 5458 5459 5462 5463 5463 5462 5462 5462 5462 5463 5463 5463 5462 5462 5461 5460 5459 5458 5458 5457 5456 5456
5469 5467 5464 5462 5460 5458 5456 5455 5453 5452 5451 5450 5450 5450 5449 5448 5447 5448 5447 5448 5449 5450 5449 5450 5452 5453 5452 5451 5452 5452 5453 5454 5454 5454 5453 5453 5452 5451 5451 5450 5450 5449 5448 5448
5461 5459 5457 5455 5452 5450 5448 5446 5444 5443 5442 5441 5441 5441 5440 5439 5439 5439 5439 5439 5440 5441 5440 5441 5441 5442 5441 5442 5443 5443 5444 5445 5445 5445 5444 5444 5444 5443 5443 5442 5442 5441 5441 5440
5451 5449 5446 5444 5443 5442 5440 5439 5437 5436 5435 5434 5433 5433 5432 5432 5431 5431 5431 5431 5431 5431 5431 5432 5432 5432 5432 5432 5433 5434 5435 5435 5435 5435 5435 5435 5435 5434 5434 5434 5434 5433 5433 5432